Baton Rouge Metropolitan, Ryan Field
KBTR : rendu visible

Aérodrome :











RETROUVEZ-NOUS SUR...

 
LOGIN :

S'inscrire | Disclaimer

   EN    FR    IT 

 









Légende :    VFR   VFR Marginal   IFR   IFR Intensif   IFR Très Intensif
Visi : 
Plafond : 
>= 8 km
>= 3000ft
5 à 8 km
1000 à 3000 ft
1500m à 5 km
500 à 1000 ft
800 à 1500m
200 à 500 ft
< 800m
< 200 ft
Symboles :   Orages  Brouillard  Fortes neiges  Fortes précipitations  Vent > 20 kt







- Altitude de l'aérodrome : 70 ft
- Code IATA : BTR


KBTR - Baton Rouge Metropolitan, Ryan Field

DERNIER METAR :
  • 240753Z AUTO 03005KT 10SM BKN050 21/17 A2999 RMK AO2 SLP153 T02110167

METARs EXPIRÉS :
  • 240653Z AUTO 01007KT 10SM CLR 22/16 A2998 RMK AO2 SLP151 T02170161
  • 240553Z AUTO 01007KT 10SM FEW047 OVC055 23/17 A2999 RMK AO2 SLP155 T02280167 10256 20228 402940228 58001

TAF KBTR
Valide du 24 à 06h jusqu'au 25 à 06h UTC


240520Z 2406/2506 01007KT P6SM OVC100
FM241500 02009KT P6SM SKC
FM250000 03003KT P6SM SKC
FIR KZHU / Amérique du Nord



MET'MAP, la Météo Aéronautique d'un coup d'oeil ! - Copyright ORBIFLY Décembre 2007 - Disclaimer

ORBIFLY MET'MAP TEAM :

Programmation & Développement : Alexandra Zaïnal
Conception & Développement : Baudouin d'Aumeries
Co-Programmation & Développement : Marc-Olivier Méhu
Soutien technique & logistique : Manuel Goepfert

Contact : metmap@orbifly.com




SOURCES & CREDITS :

   NOAA       Earth
Advisory